SL-8 DEB

Satellite information

Favourite Embed

Satellite Type and Status

DEBRISIN ORBIT

Key statistics

Satellite SL-8 DEB at a glance.

Uptime

8198

Days in orbit

Revolutions

≈ 14.8

Per day

Orbit

SSO

Sun Synchronous Orbit

Inclination

98.3

Latest

Satellite identification and parameters

Extended collection of information and parameters for SL-8 DEB.

Object identification

Identified? True

Debris? True

Object name: SL-8 DEB

International designator: 2002-054E

Object number (NORAD): 27769

Object ID (CCSDS): 27769

Country: COMMONWEALTH OF INDEPENDENT STATES (CIS)

Current information (Y/N): Y

RCS size: SMALL

Orbital parameters

Period: 97.372 minutes

Inclination: 98.2786 deg

SMA: 7011.038 km

Apoapsis: 652.148 km

Periapsis: 613.659 km

RAAN: 345.141 deg

Eccentricy: 0.0027449

Argument of periapsis: 288.937 deg

Mean anomaly: 70.8865 deg

Mean motion: 14.78867415 rev/day

Mean motion (dot): 0.00003785 rev/day2

B* drag term: 0.00051832 1/REarth

Two-line elements (TLE)

Creation date: May 9, 2025, 2:46 a.m.

Reference frame: TEME

Reference center: EARTH

Epoch: May 8, 2025, 10:12 a.m. UTC

TLE line 0: 0 SL-8 DEB

TLE line 1: 1 27769U 02054E 25128.42538012 .00003785 00000-0 51832-3 0 9990

TLE line 2: 2 27769 98.2786 345.1410 0027449 288.9370 70.8865 14.78867415197758

Live tracking on map

Real-time ground track for satellite SL-8 DEB.

In-orbit conjunctions

A list of the most updated potential collisions computed for object SL-8 DEB.

Target Orbit TCA Probability of collision Miss distance Type
ERS 1 DEB SSO 2024-11-09 16:42:38 0.00122157 269.0 (m) DEBRIS

Associated space launch

ALSAT 1 was an Algerian imaging minisatellite. The 90-kg satellite was the first part of an international Disaster Monitoring System (DMS) for alerting natural/man-made disasters.

SL-8 DEB was lifted into orbit during the mission ‘Kosmos-3M | AlSat-1’, on board a Kosmos-3M space rocket.

The launch took place on Nov. 28, 2002, 6:07 a.m. from 132/1 (132L).

For more information about the launch, click the button.

Launch to space Kosmos-3M | AlSat-1
Kosmos-3M | AlSat-1

Agency: N/A

Status: Launch Successful

Launch date: Nov. 28, 2002, 6:07 a.m. UTC

Rocket: Kosmos-3M

Launch pad: 132/1 (132L)

Location: Plesetsk Cosmodrome, Russian Federation

...

Latest news about this satellite

There are no fresh news available about this satellite. Check back as we update our databases every day.


Newsletter sign-up

Weekly statistics, charts and insights to help you stay on top of the space industry.